STARLINK-4465 (53496 NORAD) Tracking and Keplerian Element Data

This shows tracking and keplerian element data for the satellite.

Feedback or suggestion? Click here.




ElementValue
Catalog53496
NameSTARLINK-4465
Epoch Orbit1551
Epoch Day325.2100703
Epoch Year2022
RAAN84.2755
Inclination97.6566
Eccentricity0.0003273
Argument of Perigee12.3325
Mean Anonmoly347.7979
Mean Motion15.01262351
Decay Rate5.51E-06
L11 53496U 22099AH 22325.21007030 .00000551 00000+0 47512-4 0 9999
L22 53496 97.6566 84.2755 0003273 12.3325 347.7979 15.01262351 15514



Live tracking and technical data element details for STARLINK-4465 (NORAD 53496). STARLINK-4465 can be tracked NOW for your location showing map with azimuth and elevation plus other details from your city location.







IsCatalogInMostPopularTable: catalog: 53496, numindb: 6
Update: records affected: 1



GetName: 53496 STARLINK-4465

Hit Count: updated at: Thu, 08 Dec 2022 09:18:01 GMT